ソーホー彗星

C/1998 J2 ( SOHO )

English version
Home page
Updated on February 25, 1999

---------------------------------------------------------------------

・ プロフィール

発見日 1998年5月10日
発見光度
発見者 SOHO-LASCO coronagraphs C3

・ 軌道要素

T 1998 May 11.6817 TT                                   Marsden
q   0.005511             (2000.0)            P               Q
                   Peri.   83.4890      +0.1737046      -0.9838471
                   Node     4.2898      -0.9623475      -0.1789073
e   1.0            Incl.  144.6650      +0.2090791      -0.0060848
From 31 observations 1998 May 10-11.

---------------------------------------------------------------------

軌道要素は Dr. Brian G. Marsden の計算によるもので、 M.P.E.C. 1999-D04 に掲載されたものです。

---------------------------------------------------------------------

Copyright(C) Seiichi Yoshida (comet@aerith.net). All rights reserved.